Location: Newark
(9.4667°S, 159.8167°E)
Time: 20:44:29
(UTC+00:00)

A-11 Canister half - All Passes

Search period start: 21 November 2019 00:00
Search period end: 01 December 2019 00:00
Orbit: 1514 x 1685 km, 47.2° (Epoch: 20 November)

Date Brightness Start Highest point End Pass type
(mag) Time Alt. Az. Time Alt. Az. Time Alt. Az.
21 Nov - 01:03:03 10° S 01:10:00 22° SE 01:17:02 10° E daylight
21 Nov - 03:05:43 10° SW 03:15:15 82° NW 03:25:07 10° NE daylight
21 Nov - 05:15:10 10° W 05:20:04 15° NW 05:25:05 10° NNW daylight
21 Nov - 14:01:04 10° N 14:07:13 18° NE 14:13:14 10° E visible
21 Nov - 16:02:12 10° NW 16:11:57 86° SW 16:21:23 10° SE visible
21 Nov - 18:11:16 10° W 18:17:22 19° SW 18:23:26 10° S visible
22 Nov - 00:40:27 10° S 00:46:59 20° SE 00:53:36 10° E daylight
22 Nov - 02:42:49 10° SW 02:52:20 88° NW 03:02:11 10° NE daylight
22 Nov - 04:51:33 10° W 04:57:07 17° NW 05:02:49 10° NNW daylight
22 Nov - 13:38:41 10° NNE 13:44:16 16° NE 13:49:43 10° E visible
22 Nov - 15:39:15 10° NW 15:49:02 88° NE 15:58:30 10° SE visible
22 Nov - 17:47:48 10° W 17:54:22 20° SW 18:00:52 10° S visible
23 Nov - 00:17:52 10° S 00:23:58 19° SE 00:30:07 10° E daylight
23 Nov - 02:19:56 10° SW 02:29:25 86° SE 02:39:14 10° NE daylight
23 Nov - 04:28:03 10° W 04:34:10 19° NW 04:40:26 10° N daylight
23 Nov - 13:16:26 10° NNE 13:21:18 15° NE 13:26:05 10° E visible
23 Nov - 15:16:20 10° NW 15:26:08 81° NE 15:35:36 10° SE visible
23 Nov - 17:24:23 10° W 17:31:21 22° SW 17:38:15 10° S visible
23 Nov - 23:55:21 10° S 00:00:57 17° SE 00:06:36 10° ESE daylight
24 Nov - 01:57:03 10° SW 02:06:30 80° SE 02:16:16 10° NE daylight
24 Nov - 04:04:38 10° W 04:11:13 21° NW 04:17:59 10° N daylight
24 Nov - 12:54:22 10° NNE 12:58:21 13° NE 13:02:16 10° ENE night (unlit)
24 Nov - 14:53:25 10° NW 15:03:13 75° NE 15:12:40 10° SE visible
24 Nov - 17:01:01 10° W 17:08:22 24° SW 17:15:36 10° S visible
24 Nov - 23:32:52 10° S 23:37:54 15° SE 23:42:59 10° ESE daylight
25 Nov - 01:34:11 10° SW 01:43:35 74° SE 01:53:18 10° NE daylight
25 Nov - 03:41:18 10° W 03:48:17 23° NW 03:55:28 10° N daylight
25 Nov - 12:32:38 10° NNE 12:35:22 11° NE 12:38:05 10° ENE night (unlit)
25 Nov - 14:30:32 10° NNW 14:40:18 70° NE 14:49:44 10° SE visible
25 Nov - 16:37:41 10° W 16:45:23 27° SW 16:52:57 10° S visible
25 Nov - 23:10:28 10° S 23:14:51 14° SE 23:19:16 10° ESE daylight
26 Nov - 01:11:20 10° SSW 01:20:41 68° SE 01:30:17 10° NE daylight
26 Nov - 03:18:01 10° WSW 03:25:21 25° NW 03:32:54 10° N daylight
26 Nov - 14:07:39 10° NNW 14:17:24 64° NE 14:26:47 10° SE visible
26 Nov - 16:14:23 10° W 16:22:24 29° SW 16:30:16 10° SSE visible
26 Nov - 22:48:13 10° SSE 22:51:48 12° SE 22:55:25 10° ESE daylight
27 Nov - 00:48:31 10° SSW 00:57:46 63° SE 01:07:16 10° NE daylight
27 Nov - 02:54:48 10° WSW 03:02:25 28° NW 03:10:17 10° N daylight
27 Nov - 13:44:48 10° NNW 13:54:29 59° NE 14:03:48 10° SE visible
27 Nov - 15:51:07 10° WNW 15:59:26 32° SW 16:07:34 10° SSE visible
27 Nov - 22:26:11 10° SSE 22:28:44 11° SE 22:31:17 10° SE daylight
28 Nov - 00:25:41 10° SSW 00:34:51 58° SE 00:44:13 10° NE daylight
28 Nov - 02:31:36 10° WSW 02:39:30 30° NW 02:47:39 10° N daylight
28 Nov - 13:21:58 10° NNW 13:31:33 54° NE 13:40:49 10° SE visible
28 Nov - 15:27:54 10° WNW 15:36:28 35° SW 15:44:51 10° SSE visible
29 Nov - 00:02:53 10° SSW 00:11:55 53° SE 00:21:10 10° ENE daylight
29 Nov - 02:08:27 10° WSW 02:16:35 33° NW 02:24:58 10° N daylight
29 Nov - 12:59:09 10° NNW 13:08:38 50° NE 13:17:49 10° ESE visible
29 Nov - 15:04:41 10° WNW 15:13:30 38° SW 15:22:07 10° SSE visible
29 Nov - 23:40:05 10° SSW 23:49:00 49° SE 23:58:06 10° ENE daylight
30 Nov - 01:45:20 10° WSW 01:53:40 36° NW 02:02:17 10° NNE daylight
30 Nov - 12:36:22 10° NNW 12:45:43 46° NE 12:54:46 10° ESE visible
30 Nov - 14:41:31 10° WNW 14:50:33 41° SW 14:59:21 10° SSE visible
30 Nov - 23:17:18 10° SSW 23:26:04 45° SE 23:35:00 10° ENE daylight
